Location: Newark
(25.6108°S, 54.5803°W)
Time: 07:05:42
(UTC+00:00)

Tiros 1 - Pass Details

Date: 01 November 2020
Orbit: 630 x 664 km, 48.4° (Epoch: 29 November)

Event Time Altitude Azimuth Distance (km) Brightness Sun altitude
Rises 00:18:02 0° 221° (SW) 3,014 11.7 -29.9°
Reaches altitude 10° 00:20:27 10° 216° (SW) 2,095 10.6 -30.3°
Enters shadow 00:23:28 35° 195° (SSW) 1,079 8.6 -30.9°
Maximum altitude 00:25:12 53° 138° (SE) 811 - -31.2°
Drops below altitude 10° 00:29:52 10° 61° (ENE) 2,062 - -32.0°
Sets 00:32:14 0° 56° (NE) 2,963 - -32.4°
